TimeCDT,TemperatureF,Dew PointF,Humidity,Sea Level PressureIn,VisibilityMPH,Wind Direction,Wind SpeedMPH,Gust SpeedMPH,PrecipitationIn,Events,Conditions,WindDirDegrees,DateUTC
12:53 AM,70.0,69.1,97,29.95,10.0,SE,3.5,-,N/A,,Clear,140,2013-06-19 05:53:00
1:53 AM,70.0,69.1,97,29.95,10.0,Calm,Calm,-,N/A,,Partly Cloudy,0,2013-06-19 06:53:00
2:53 AM,71.1,69.1,93,29.95,10.0,Calm,Calm,-,N/A,,Overcast,0,2013-06-19 07:53:00
3:53 AM,71.1,69.1,93,29.95,10.0,Calm,Calm,-,N/A,,Mostly Cloudy,0,2013-06-19 08:53:00
4:48 AM,71.6,69.8,94,29.98,10.0,North,4.6,-,0.01,,Mostly Cloudy,350,2013-06-19 09:48:00
4:53 AM,71.1,69.1,93,29.96,10.0,NW,3.5,-,0.01,,Mostly Cloudy,320,2013-06-19 09:53:00
5:15 AM,71.6,69.8,94,29.98,10.0,Calm,Calm,-,N/A,,Overcast,0,2013-06-19 10:15:00
5:34 AM,69.8,69.8,100,29.98,-9999.0,North,-9999.0,-,N/A,,Unknown,0,2013-06-19 10:34:00
5:53 AM,70.0,69.1,97,29.98,10.0,Calm,Calm,-,N/A,,Unknown,0,2013-06-19 10:53:00
6:19 AM,69.8,69.8,100,30.00,10.0,Calm,Calm,-,N/A,,Overcast,0,2013-06-19 11:19:00
6:53 AM,71.1,69.1,93,30.00,10.0,North,3.5,-,0.00,,Overcast,350,2013-06-19 11:53:00
7:12 AM,71.6,69.8,94,30.03,2.5,NNW,5.8,-,0.03,Rain-Thunderstorm,Light Thunderstorms and Rain,330,2013-06-19 12:12:00
7:23 AM,71.6,69.8,94,30.03,1.2,Variable,5.8,-,0.18,Rain-Thunderstorm,Thunderstorms and Rain,0,2013-06-19 12:23:00
7:34 AM,71.6,69.8,94,30.03,3.0,WNW,4.6,-,0.20,Rain-Thunderstorm,Light Thunderstorms and Rain,300,2013-06-19 12:34:00
7:53 AM,71.1,70.0,96,30.02,5.0,North,5.8,-,0.22,Rain-Thunderstorm,Rain,360,2013-06-19 12:53:00
8:06 AM,71.6,69.8,94,30.03,4.0,North,3.5,-,0.03,Rain,Rain,360,2013-06-19 13:06:00
8:53 AM,72.0,71.1,97,30.02,10.0,Calm,Calm,-,0.05,,Partly Cloudy,0,2013-06-19 13:53:00
9:38 AM,73.4,71.6,94,30.04,10.0,Calm,Calm,-,N/A,,Mostly Cloudy,0,2013-06-19 14:38:00
9:53 AM,73.9,71.1,91,30.04,10.0,Calm,Calm,-,N/A,,Overcast,0,2013-06-19 14:53:00
10:37 AM,77.0,71.6,83,30.05,10.0,Calm,Calm,-,N/A,,Overcast,0,2013-06-19 15:37:00
10:53 AM,78.1,71.1,79,30.04,10.0,Calm,Calm,-,N/A,,Overcast,0,2013-06-19 15:53:00
11:02 AM,77.0,71.6,83,30.06,10.0,Calm,Calm,-,N/A,,Overcast,0,2013-06-19 16:02:00
11:10 AM,78.8,71.6,78,30.06,10.0,Calm,Calm,-,N/A,,Overcast,0,2013-06-19 16:10:00
11:34 AM,78.8,71.6,78,30.06,10.0,SW,3.5,-,N/A,,Mostly Cloudy,230,2013-06-19 16:34:00
11:53 AM,79.0,71.1,77,30.05,10.0,WSW,4.6,-,N/A,,Mostly Cloudy,250,2013-06-19 16:53:00
12:08 PM,80.6,71.6,74,30.06,10.0,SSW,5.8,-,N/A,,Mostly Cloudy,210,2013-06-19 17:08:00
12:17 PM,78.8,71.6,78,30.06,10.0,WSW,6.9,-,N/A,,Overcast,250,2013-06-19 17:17:00
12:49 PM,80.6,71.6,74,30.05,10.0,SSW,5.8,-,N/A,,Mostly Cloudy,210,2013-06-19 17:49:00
12:53 PM,81.0,72.0,74,30.04,10.0,SSW,8.1,-,N/A,,Mostly Cloudy,200,2013-06-19 17:53:00
1:53 PM,81.0,70.0,69,30.01,10.0,WSW,6.9,-,N/A,,Mostly Cloudy,250,2013-06-19 18:53:00
2:53 PM,82.9,71.1,67,29.99,10.0,SW,3.5,-,N/A,,Scattered Clouds,230,2013-06-19 19:53:00
3:23 PM,84.2,71.6,66,30.00,10.0,South,9.2,-,N/A,,Mostly Cloudy,190,2013-06-19 20:23:00
3:38 PM,84.2,71.6,66,30.00,10.0,SW,5.8,-,N/A,,Scattered Clouds,220,2013-06-19 20:38:00
3:53 PM,84.9,71.1,63,29.98,10.0,West,5.8,-,N/A,,Partly Cloudy,260,2013-06-19 20:53:00
4:53 PM,84.9,71.1,63,29.98,10.0,Variable,4.6,-,N/A,,Clear,0,2013-06-19 21:53:00
5:53 PM,84.0,70.0,63,29.98,10.0,Calm,Calm,-,N/A,,Scattered Clouds,0,2013-06-19 22:53:00
6:53 PM,82.9,72.0,69,29.98,10.0,WSW,4.6,-,N/A,,Clear,240,2013-06-19 23:53:00
7:53 PM,81.0,73.0,77,29.99,10.0,Calm,Calm,-,N/A,,Partly Cloudy,0,2013-06-20 00:53:00
8:53 PM,78.1,73.0,84,30.00,10.0,Calm,Calm,-,N/A,,Clear,0,2013-06-20 01:53:00
9:53 PM,77.0,73.0,88,30.02,10.0,Calm,Calm,-,N/A,,Clear,0,2013-06-20 02:53:00
10:53 PM,75.0,73.0,94,30.03,10.0,Calm,Calm,-,N/A,,Clear,0,2013-06-20 03:53:00
11:53 PM,75.0,72.0,90,30.04,10.0,Calm,Calm,-,N/A,,Clear,0,2013-06-20 04:53:00